User: anonymous   Login
Location: NJAA Observatory
(40.6819°N, 74.8979°W)
Time: 01:40:16
(UTC-05:00)
Language:

Cosmos 1633 - Orbit

View from above orbital plane
View from above orbital plane
View from above satellite
View from above satellite

Ground track
Ground track

The orbit data is extracted from the following two-line orbital elements,

1 15592U 85020A   17018.50726442  .00001238  00000-0  43990-4 0  9997
2 15592  82.5394 109.2292 0013411 353.4863   6.6199 15.27959167741434
Epoch (UTC): 18 January 2017 12:10:27
Eccentricity: 0.0013411
inclination: 82.5394°
perigee height: 473 km
apogee height: 491 km
right ascension of ascending node: 109.2292°
argument of perigee: 353.4863°
revolutions per day: 15.27959167
mean anomaly at epoch: 6.6199°
orbit number at epoch: 74143

The dashed part of the orbit path shows where the satellite is in the earth's shadow,  

DLR